DW7574 Weather Reports


time (UTC)temp
F
wind
direction
speed
knots
gust
knots
rain 1hr
in
rain 24hr
in
rain mn
in
humidity
%
barometer
mb
20260510230012 69 340 0.0 0.0 0.00 0.00 0.00 100 1014.5
20260510224509 71 340 0.0 0.0 0.00 0.00 0.00 24 1014.5
20260510223004 73 340 0.0 3.5 0.00 0.00 0.00 56 1014.3
20260510221601 74 340 0.0 0.0 0.00 0.00 0.00 56 1014.1
20260510220057 75 341 0.0 5.2 0.00 0.00 0.00 56 1013.9
20260510214550 75 341 0.0 1.7 0.00 0.00 0.00 56 1013.7
20260510213046 75 342 0.0 3.5 0.00 0.00 0.00 56 1013.7
20260510211542 76 311 0.0 0.0 0.00 0.00 0.00 55 1013.6
20260510210038 77 311 0.0 0.9 0.00 0.00 0.00 54 1013.3
20260510204533 77 311 0.0 0.9 0.00 0.00 0.00 54 1013.4
20260510203030 78 286 0.0 3.5 0.00 0.00 0.00 55 1013.4
20260510201524 78 276 0.0 10.4 0.00 0.00 0.00 53 1013.5
20260510200020 77 22 0.0 4.3 0.00 0.00 0.00 55 1013.5
20260510194519 76 326 0.0 7.0 0.00 0.00 0.00 54 1013.7
20260510193011 76 323 0.0 5.2 0.00 0.00 0.00 55 1013.7
20260510191510 76 313 0.0 3.5 0.00 0.00 0.00 55 1013.9
20260510190004 76 284 0.0 7.0 0.00 0.00 0.00 56 1013.8
20260510184601 77 276 0.0 1.7 0.00 0.00 0.00 54 1013.6
20260510183054 78 265 0.0 3.5 0.00 0.00 0.00 52 1013.6
20260510181549 79 23 0.0 3.5 0.00 0.00 0.00 53 1013.5
20260510180045 78 355 0.0 2.6 0.00 0.00 0.00 54 1013.5
20260510174541 77 355 0.0 1.7 0.00 0.00 0.00 53 1013.6
20260510173042 75 344 0.0 3.5 0.00 0.00 0.00 54 1013.7
20260510171532 74 26 0.0 5.2 0.00 0.00 0.00 54 1013.8
20260510170027 76 34 0.0 4.3 0.00 0.00 0.00 53 1013.8
20260510164524 77 5 0.9 10.4 0.00 0.00 0.00 50 1013.7
20260510163019 80 340 1.7 8.7 0.00 0.00 0.00 48 1013.7
20260510161514 80 248 0.9 8.7 0.00 0.00 0.00 50 1013.8
20260510160010 77 242 0.9 8.7 0.00 0.00 0.00 53 1013.8
20260510154506 76 232 3.5 8.7 0.00 0.00 0.00 51 1014.0
20260510153101 76 111 0.9 6.1 0.00 0.00 0.00 51 1013.7
20260510151556 75 144 0.9 5.2 0.00 0.00 0.00 51 1013.9
20260510150055 75 137 0.0 1.7 0.00 0.00 0.00 49 1014.1
20260510144604 73 138 0.0 4.3 0.00 0.00 0.00 49 1014.1
20260510143052 72 144 0.0 5.2 0.00 0.00 0.00 45 1014.1
20260510141539 69 144 0.0 4.3 0.00 0.00 0.00 43 1014.3
20260510140034 69 145 0.0 7.0 0.00 0.00 0.00 39 1014.5
20260510134530 68 157 0.0 7.0 0.00 0.00 0.00 20 1014.3
20260510133025 64 231 0.0 3.5 0.00 0.00 0.00 100 1014.3
20260510131521 61 231 0.0 0.9 0.00 0.00 0.00 100 1014.2
20260510130018 59 231 0.0 3.5 0.00 0.00 0.00 100 1014.1
20260510124513 58 231 0.0 0.0 0.00 0.00 0.00 100 1014.1
20260510123008 56 231 0.0 0.0 0.00 0.00 0.00 100 1014.0
20260510121504 54 231 0.0 0.9 0.00 0.00 0.00 100 1014.1
20260510120100 52 231 0.0 0.0 0.00 0.00 0.00 100 1014.0
20260510114555 0 0.0 0.0 0.00 0.00 0.00 1013.8
20260510113051 0 0.0 0.0 0.00 0.00 0.00 1013.5
20260510111555 0 0.0 0.0 0.00 0.00 0.00 1013.2
20260510110041 0 0.0 0.0 0.00 0.00 0.00 1013.0
20260510104545 0 0.0 0.0 0.00 0.00 0.00 1012.8
20260510103034 0 0.0 0.0 0.00 0.00 0.00 1012.7
20260510101528 0 0.0 0.0 0.00 0.00 0.00 1012.6
20260510100026 0 0.0 0.0 0.00 0.00 0.00 1012.4
20260510094529 0 0.0 0.0 0.00 0.00 0.00 1012.2
20260510093015 0 0.0 0.0 0.00 0.00 0.00 1012.0
20260510091520 0 0.0 0.0 0.00 0.00 0.00 1011.9
20260510090008 0 0.0 0.0 0.00 0.00 0.00 1011.8
20260510084502 0 0.0 0.0 0.00 0.00 0.00 1011.7
20260510083103 0 0.0 0.0 0.00 0.00 0.00 1011.5
20260510081618 0 0.0 0.0 0.00 0.00 0.00 1011.5
20260510080055 0 0.0 0.0 0.00 0.00 0.00 1011.4
20260510074545 0 0.0 0.0 0.00 0.00 0.00 1011.3
20260510073041 0 0.0 0.0 0.00 0.00 0.00 1011.2
20260510071536 0 0.0 0.0 0.00 0.00 0.00 1011.2
20260510070033 0 0.0 0.0 0.00 0.00 0.00 1011.2
20260510064531 0 0.0 0.0 0.00 0.00 0.00 1011.2
20260510063023 0 0.0 0.0 0.00 0.00 0.00 1011.3
20260510061528 0 0.0 0.0 0.00 0.00 0.00 1011.4
20260510060031 0 0.0 0.0 0.00 0.00 0.00 1011.4
20260510054510 0 0.0 0.0 0.00 0.00 0.00 1011.4
20260510053005 0 0.0 0.0 0.00 0.00 0.00 1011.4
20260510051502 0 0.0 0.0 0.00 0.00 0.00 1011.6
20260510050057 0 0.0 0.0 0.00 0.00 0.00 1011.5
20260510044554 0 0.0 0.0 0.00 0.00 0.00 1011.7
20260510043127 0 0.0 0.0 0.00 0.00 0.00 1011.9
20260510041550 0 0.0 0.0 0.00 0.00 0.00 1011.9
20260510040039 54 231 0.0 0.0 0.00 0.00 0.00 100 1011.9
20260510034537 55 231 0.0 0.0 0.00 0.00 0.00 100 1011.9
20260510033033 55 231 0.0 0.0 0.00 0.00 0.00 100 1011.6
20260510031543 56 231 0.0 0.0 0.00 0.00 0.00 100 1011.5
20260510030023 57 231 0.0 0.0 0.00 0.00 0.00 100 1011.5
20260510024517 58 231 0.0 0.0 0.00 0.00 0.00 100 1011.4
20260510023030 58 231 0.0 0.0 0.00 0.00 0.00 100 1011.1
20260510021510 59 231 0.0 0.0 0.00 0.00 0.00 8 1010.8
20260510020005 60 231 0.0 0.0 0.00 0.00 0.00 16 1010.5
20260510014600 61 231 0.0 0.0 0.00 0.00 0.00 27 1010.4
20260510013056 62 231 0.0 0.0 0.00 0.00 0.00 38 1010.1
20260510011608 63 231 0.0 0.0 0.00 0.00 0.00 48 1009.9
20260510004543 65 231 0.0 0.0 0.00 0.00 0.00 56 1009.5
20260510003039 66 231 0.0 0.0 0.00 0.00 0.00 57 1009.3
20260510001535 67 231 0.0 0.0 0.00 0.00 0.00 57 1009.2
20260510000030 67 231 0.0 0.0 0.00 0.00 0.00 58 1009.1
20260509234526 68 231 0.0 7.8 0.00 0.00 0.00 57 1009.0
20260509233022 68 234 0.0 8.7 0.00 0.00 0.00 57 1009.0
20260509231518 69 109 0.0 6.1 0.00 0.00 0.00 57 1009.0